Theta_e
289 289 288 288 288 289 288 288 288 288 288 289 288 289 289 289 290 290 290 290 290 290 290 290 290 289 290 289 288 288 288 287 287 287 286 287 286 286 286 285 285 285
290 290 291 290 289 290 289 289 289 289 289 289 289 289 290 290 290 290 290 290 290 290 290 290 289 289 288 288 287 287 287 287 286 288 287 286 286 286 285 285 285 285
290 290 290 289 290 290 290 291 290 290 290 290 290 290 290 291 290 290 290 290 289 289 289 289 288 288 288 287 287 287 286 286 286 286 286 286 286 285 285 285 285 285
290 290 291 290 290 290 290 290 290 290 289 289 289 290 290 291 289 289 289 289 288 288 288 288 287 287 287 287 287 286 286 286 286 286 286 286 286 285 285 285 285 285
290 290 290 290 290 290 289 289 289 289 289 289 289 289 289 288 288 288 288 288 287 287 287 287 287 287 286 286 286 285 286 286 286 285 285 285 285 285 285 285 284 283
290 290 290 290 289 289 289 288 289 289 288 288 288 288 288 288 287 287 287 286 287 286 286 286 286 286 286 286 285 285 285 285 285 285 284 284 284 284 285 284 283 282
289 289 289 289 289 289 289 288 288 288 288 288 287 287 287 287 287 286 286 286 286 286 286 285 285 285 286 285 285 285 285 285 284 284 283 283 283 282 282 282 281 281
289 289 289 289 288 288 288 288 288 288 287 287 286 287 286 286 286 286 286 286 285 285 285 285 285 285 285 285 284 284 284 284 284 283 282 281 281 280 280 281 280 279
289 288 288 288 287 287 287 287 287 287 287 286 286 286 286 286 286 285 285 285 285 285 285 285 285 285 285 284 284 283 282 282 282 281 281 280 280 279 279 279 279 278
288 288 287 287 286 287 286 286 286 286 286 286 285 285 285 285 285 285 285 284 284 284 284 284 284 284 284 283 283 282 282 281 281 281 280 280 279 279 278 278 278 277
287 287 286 286 286 286 285 285 285 285 285 285 285 285 285 285 285 284 284 284 284 284 284 283 283 283 282 282 282 282 281 281 280 280 279 279 278 278 280 278 277 277
286 285 286 285 285 284 285 285 285 285 284 284 284 284 284 284 284 284 284 283 283 283 283 283 283 282 282 281 281 281 280 280 280 279 278 278 278 278 278 278 277 277
285 285 285 284 284 284 285 284 284 284 284 284 284 283 283 283 283 283 283 283 283 283 282 282 282 282 281 280 280 280 279 278 278 278 277 277 278 277 277 277 277 277
285 284 284 284 284 284 284 284 284 283 284 284 283 283 283 283 283 283 283 282 282 282 282 282 281 280 280 279 279 278 278 278 277 277 277 277 277 277 277 277 277 277
284 284 284 284 284 284 283 283 283 283 283 283 283 283 284 283 283 283 282 281 281 280 280 280 280 279 279 279 278 278 278 277 277 277 276 276 276 276 277 277 277 277
283 282 283 283 283 283 282 282 282 282 282 282 282 282 281 281 281 281 280 279 279 278 278 278 278 278 280 281 281 279 278 278 277 277 276 276 276 276 276 276 276 276
282 282 281 282 282 282 281 281 282 282 281 281 281 281 281 280 279 279 278 278 277 277 276 277 277 278 281 281 281 281 279 278 277 276 276 276 276 275 275 275 275 275
282 282 281 281 281 281 281 281 281 281 281 280 280 279 279 278 277 277 277 276 277 276 275 276 276 279 280 281 281 281 281 279 277 277 276 276 275 275 274 274 274 274
281 280 280 280 280 281 281 281 280 280 280 279 278 278 277 276 276 276 275 275 275 275 275 275 275 279 280 280 281 281 281 279 277 276 275 274 274 274 274 274 274 274
281 280 280 280 280 280 280 280 279 279 278 277 276 276 275 275 275 275 275 274 274 274 274 274 274 277 279 280 280 280 280 279 276 275 274 274 274 274 274 274 274 274
280 280 280 280 280 280 279 278 278 277 276 275 275 275 274 274 274 274 274 274 274 274 273 274 274 278 279 279 279 279 279 278 275 274 274 274 274 274 274 274 274 274
280 279 279 279 279 278 277 276 275 275 274 274 275 274 274 274 274 273 273 273 273 273 273 272 273 277 278 278 278 278 278 275 274 274 274 274 273 273 273 273 273 273
279 279 279 278 277 276 275 274 274 274 274 274 274 273 273 273 273 273 273 273 273 272 272 272 272 275 277 277 277 278 277 275 274 274 273 272 272 272 273 273 273 273
278 278 277 276 275 274 274 274 274 273 273 274 273 272 272 272 272 272 272 272 272 272 272 272 271 273 276 276 277 277 277 274 273 272 271 271 271 272 272 273 274 275
277 277 275 274 274 274 274 273 273 273 273 273 272 272 272 272 272 271 271 271 272 272 272 271 271 272 275 276 276 277 276 273 272 271 270 270 271 271 272 273 273 274
276 275 274 273 273 273 273 273 273 272 272 272 272 271 271 271 271 271 270 270 271 271 271 271 271 271 273 276 276 276 276 273 272 270 270 270 271 271 272 272 273 273
Wind_Speed
7 7 7 7 7 6 6 6 6 7 7 7 7 8 7 7 6 6 6 6 6 6 6 7 6 7 7 6 5 6 6 8 8 7 8 8 8 10 10 11 11 10
7 6 6 6 6 5 6 5 6 6 7 7 6 6 6 6 6 6 6 6 6 6 6 7 7 7 7 6 6 7 7 7 9 7 9 10 9 9 10 11 11 10
5 5 5 5 6 5 6 5 5 6 6 6 6 6 6 5 7 6 7 6 6 6 6 6 6 6 6 6 6 7 8 9 9 8 8 9 8 9 9 9 9 10
5 4 4 5 5 5 5 5 6 6 5 6 6 6 6 5 5 6 6 6 6 6 6 6 6 6 6 7 7 7 8 8 9 8 9 8 8 8 10 9 10 11
4 4 4 4 4 4 4 5 5 6 5 6 6 6 6 6 6 6 6 6 5 6 6 7 6 7 7 7 7 8 8 9 8 8 9 10 9 9 9 10 11 12
4 4 4 4 4 4 5 5 5 5 5 5 6 5 5 5 5 5 6 6 6 6 7 7 7 7 7 8 8 8 9 9 9 9 10 11 10 9 8 9 11 12
4 4 4 4 4 4 4 5 5 5 5 5 4 5 5 5 5 6 6 6 7 7 7 8 8 8 7 8 8 9 9 9 10 10 11 10 10 11 9 9 10 12
4 4 4 4 4 4 5 5 5 4 4 4 5 5 5 6 6 5 5 7 7 7 8 8 8 8 8 8 9 10 11 8 9 10 11 11 10 10 10 9 10 12
3 4 4 4 4 4 4 5 5 5 5 5 5 5 5 5 6 6 6 7 7 7 7 7 8 9 8 9 10 11 11 10 10 10 11 11 11 11 11 10 11 11
4 4 4 4 4 4 5 5 5 5 4 5 5 5 6 6 5 6 6 6 6 7 7 8 9 9 10 9 10 10 11 12 11 10 10 10 11 11 12 11 12 13
4 4 4 4 4 4 5 5 5 5 5 5 5 6 5 6 6 5 5 6 7 8 9 9 10 10 10 11 10 10 11 11 11 10 10 11 11 11 11 12 13 14
4 4 4 4 4 4 4 5 5 5 5 5 5 6 6 5 6 6 5 7 7 8 9 10 10 10 10 11 11 10 10 11 10 10 10 11 11 11 12 12 13 14
4 4 4 4 4 4 4 4 4 5 5 5 5 5 6 6 5 6 6 6 8 9 9 10 10 9 10 10 11 11 11 12 11 11 11 10 10 12 12 13 13 13
4 3 4 4 4 4 4 4 4 4 5 5 5 6 6 6 7 8 8 7 8 8 9 9 9 10 10 10 10 11 12 11 11 11 11 11 12 12 12 12 13 13
4 3 4 4 4 4 4 4 4 5 5 6 5 6 6 6 7 8 9 10 9 8 9 9 9 9 8 9 11 13 12 11 11 10 11 12 13 13 12 12 12 11
4 3 3 4 4 4 4 4 5 5 6 6 6 6 6 6 7 8 8 9 10 10 9 8 8 8 10 21 21 15 13 11 11 11 11 12 13 14 13 11 11 12
3 3 3 4 4 4 5 5 6 6 6 6 6 6 7 8 8 9 8 9 10 10 10 9 8 8 17 24 24 27 17 12 11 11 11 12 12 13 13 13 12 12
3 4 4 4 4 5 5 5 6 6 6 6 7 8 8 7 8 9 9 9 9 9 9 9 10 12 23 24 25 24 22 15 12 11 11 12 12 14 14 14 15 15
4 4 4 5 5 5 5 6 6 7 7 7 8 7 7 9 9 10 10 10 9 10 10 10 10 14 23 24 23 24 25 20 11 12 13 14 14 14 15 14 14 15
4 4 4 4 5 5 6 7 6 7 6 6 7 7 8 9 9 10 9 9 9 10 10 10 11 14 23 24 24 24 23 21 12 14 13 14 14 15 14 15 15 14
5 4 4 4 5 5 6 6 6 6 7 7 7 8 9 10 10 10 10 10 10 10 10 10 9 20 23 23 22 22 23 19 12 13 13 14 14 14 15 15 15 15
4 4 4 4 5 6 6 7 6 7 8 8 8 8 8 8 8 9 11 11 10 10 10 10 10 21 21 21 22 21 23 13 12 13 13 13 14 14 15 14 14 15
4 4 4 5 5 6 6 6 7 8 8 7 8 8 9 9 9 9 9 10 11 10 11 10 9 15 21 21 21 22 18 12 12 12 13 14 14 14 14 14 15 15
4 4 4 4 5 6 7 7 7 6 7 7 8 10 10 10 10 9 9 9 10 10 10 10 10 15 20 19 20 22 19 13 13 13 14 13 13 14 14 15 15 22
4 4 4 5 6 6 6 7 7 8 7 7 7 8 9 9 9 9 9 8 8 9 12 12 10 12 17 19 21 21 19 13 13 11 12 12 12 14 13 11 13 15
3 4 5 5 6 6 6 6 7 7 7 8 7 7 8 8 8 8 9 8 8 9 9 10 11 11 13 21 21 23 22 14 11 11 11 14 13 10 12 14 14 14
Wind_Direction
241 242 249 255 257 258 268 278 282 285 287 288 289 292 292 294 300 305 306 310 307 307 303 298 296 294 290 286 285 286 282 281 279 275 272 271 270 272 275 273 271 270
245 249 256 262 276 281 281 279 284 287 291 292 294 298 303 309 312 314 311 305 301 296 296 295 291 289 288 289 289 289 286 282 281 277 277 275 275 274 275 275 275 274
261 271 278 285 286 293 295 297 298 298 298 298 304 309 308 313 309 306 301 300 301 301 300 296 293 291 291 292 292 289 287 285 283 282 278 278 280 279 278 280 280 280
289 285 290 292 295 293 294 298 297 296 300 306 302 301 301 298 301 304 309 311 309 304 299 297 294 295 296 294 293 289 287 285 285 287 285 284 282 284 287 290 289 289
267 280 282 280 279 281 291 294 294 295 295 292 297 299 303 305 307 308 307 305 303 300 300 299 299 298 298 296 294 294 292 290 287 287 288 289 289 290 292 292 292 291
284 274 275 276 280 293 301 296 292 296 299 303 295 302 305 307 307 305 304 303 303 300 301 303 303 302 300 297 295 288 289 289 291 291 291 292 294 293 295 294 295 294
279 291 293 295 303 302 297 291 292 295 298 293 311 312 308 308 308 306 305 303 304 305 305 305 304 302 298 293 290 291 290 292 295 296 296 297 299 301 300 300 297 294
294 299 299 302 305 301 300 297 302 309 308 323 317 304 311 308 307 305 306 309 309 307 305 302 299 298 298 297 298 298 298 298 299 301 302 302 304 301 301 297 293 294
310 307 305 310 313 308 310 317 321 322 322 321 315 310 310 308 307 310 310 309 306 303 303 302 301 300 301 300 300 300 301 303 304 306 306 305 304 300 297 298 299 300
315 306 318 313 318 314 324 324 325 324 324 322 314 312 310 309 309 309 308 307 306 306 305 305 303 303 302 302 302 304 305 306 307 305 303 302 301 302 303 304 303 300
306 308 314 321 325 332 328 329 329 323 317 312 310 307 305 309 309 308 308 309 309 307 307 306 305 305 306 305 305 305 305 305 305 304 304 304 304 303 305 303 298 294
306 318 328 336 335 332 327 320 313 309 306 307 307 308 311 309 309 311 310 309 307 308 306 305 305 304 303 304 307 308 306 304 303 304 306 305 304 302 299 296 295 298
314 328 342 335 325 315 311 311 308 307 315 312 312 313 314 313 314 315 311 309 307 305 303 302 304 306 306 308 308 308 306 305 305 305 305 304 301 298 296 298 299 300
323 339 338 320 314 316 314 312 317 322 317 314 322 318 314 317 318 315 308 305 302 301 302 305 308 310 310 307 307 306 305 304 306 308 308 304 300 300 302 301 301 301
332 330 322 329 329 325 325 324 327 323 321 321 316 314 317 313 312 311 310 307 304 304 307 311 312 310 309 308 308 309 308 310 312 312 310 307 305 305 306 306 305 306
321 330 339 341 333 329 327 334 329 323 320 317 316 317 317 315 311 308 305 305 310 311 313 313 309 305 302 308 313 315 317 317 316 313 313 311 311 311 311 312 313 314
353 340 351 338 333 341 339 334 324 319 318 318 323 326 321 314 308 308 311 311 312 314 313 311 306 302 306 316 319 321 321 318 319 320 320 318 315 316 317 318 315 312
350 358 358 344 351 343 333 326 325 324 326 330 330 324 315 309 310 311 312 313 313 311 310 308 307 308 318 321 322 323 327 327 327 324 324 322 322 320 316 315 315 314
17 14 358 353 345 338 334 333 329 327 329 333 326 315 311 313 313 315 314 314 312 312 312 312 312 317 322 323 329 332 331 329 324 329 326 321 318 315 314 314 312 312
21 13 0 348 344 343 338 330 328 327 329 324 316 312 313 312 312 313 313 314 316 315 316 317 317 321 328 332 334 333 331 333 333 329 322 317 315 315 313 314 313 313
19 8 1 352 347 339 330 325 326 329 329 322 315 315 316 318 320 321 320 319 320 320 320 323 324 331 334 334 334 336 337 338 330 323 317 314 315 316 319 319 322 321
21 11 2 350 338 330 326 327 334 330 324 320 316 313 313 315 317 319 318 322 324 326 328 329 332 335 336 338 341 343 340 334 325 322 319 320 321 323 321 319 316 313
28 21 354 338 331 328 329 332 329 324 320 319 317 320 323 324 322 323 324 325 331 333 333 330 331 341 343 344 343 338 336 333 331 327 325 323 322 321 319 315 311 306
25 12 340 336 336 330 327 322 319 318 316 323 327 327 328 326 325 326 329 332 331 331 335 339 347 347 343 340 338 337 340 338 334 328 324 322 321 319 314 311 306 309
4 350 354 352 334 321 322 321 325 323 319 327 328 329 323 322 327 327 328 329 331 339 352 350 337 336 337 336 337 340 342 339 334 329 325 323 317 310 307 308 312 313
350 12 6 344 319 314 317 322 321 321 328 328 331 329 322 325 328 326 326 335 349 350 342 338 334 332 332 336 341 341 341 339 336 330 324 314 306 303 314 317 316 314